QPF
0.01 0.02 0.01 0.00 0.00 0.01 0.00 0.00 0.00 0.00 0.00 0.00 0.00 0.00 0.00 0.00 0.00 0.00 0.00 0.00 0.00 0.00 0.00 0.00 0.00 0.00 0.00 0.01 0.04 0.02 0.03 0.00 0.00 0.00 0.00 0.00 0.00 0.00 0.00 0.00 0.00 0.00 0.00 0.00 0.00
0.00 0.02 0.01 0.00 0.00 0.00 0.00 0.00 0.00 0.00 0.00 0.00 0.00 0.00 0.00 0.00 0.01 0.00 0.00 0.00 0.00 0.00 0.00 0.00 0.00 0.00 0.01 0.01 0.04 0.03 0.00 0.00 0.00 0.00 0.00 0.00 0.00 0.00 0.00 0.00 0.00 0.00 0.02 0.04 0.05
0.01 0.03 0.01 0.01 0.00 0.01 0.01 0.00 0.00 0.00 0.00 0.00 0.00 0.01 0.00 0.00 0.00 0.00 0.00 0.00 0.00 0.00 0.00 0.00 0.01 0.00 0.01 0.01 0.02 0.00 0.00 0.00 0.00 0.00 0.00 0.00 0.00 0.00 0.00 0.00 0.00 0.00 0.00 0.03 0.06
0.02 0.02 0.01 0.01 0.01 0.01 0.02 0.02 0.02 0.02 0.02 0.01 0.01 0.00 0.00 0.00 0.00 0.03 0.02 0.00 0.01 0.00 0.00 0.01 0.02 0.02 0.01 0.01 0.00 0.00 0.00 0.00 0.00 0.00 0.00 0.00 0.00 0.00 0.00 0.00 0.00 0.00 0.00 0.00 0.01
0.01 0.01 0.01 0.00 0.01 0.02 0.04 0.05 0.04 0.05 0.02 0.03 0.06 0.01 0.00 0.00 0.00 0.03 0.01 0.00 0.00 0.01 0.00 0.00 0.01 0.03 0.00 0.00 0.00 0.00 0.00 0.00 0.00 0.00 0.00 0.00 0.00 0.00 0.00 0.00 0.00 0.00 0.03 0.00 0.01
0.01 0.01 0.01 0.01 0.01 0.02 0.03 0.03 0.06 0.10 0.07 0.04 0.10 0.04 0.00 0.00 0.00 0.00 0.00 0.00 0.00 0.02 0.01 0.00 0.03 0.04 0.00 0.00 0.00 0.00 0.00 0.00 0.00 0.00 0.00 0.00 0.00 0.00 0.00 0.00 0.00 0.00 0.01 0.02 0.01
0.01 0.01 0.01 0.01 0.01 0.01 0.00 0.01 0.03 0.14 0.09 0.04 0.11 0.05 0.00 0.00 0.00 0.00 0.00 0.00 0.00 0.00 0.00 0.00 0.05 0.08 0.01 0.00 0.00 0.01 0.01 0.02 0.01 0.00 0.00 0.00 0.00 0.00 0.00 0.00 0.00 0.00 0.01 0.00 0.01
0.01 0.00 0.01 0.01 0.01 0.00 0.00 0.00 0.01 0.10 0.10 0.07 0.08 0.03 0.00 0.00 0.00 0.01 0.00 0.00 0.00 0.00 0.00 0.00 0.01 0.02 0.01 0.00 0.00 0.01 0.03 0.03 0.02 0.00 0.00 0.00 0.00 0.00 0.00 0.00 0.00 0.00 0.00 0.00 0.00
0.01 0.00 0.01 0.01 0.01 0.00 0.00 0.00 0.01 0.06 0.06 0.02 0.02 0.00 0.00 0.01 0.00 0.00 0.00 0.00 0.00 0.00 0.00 0.00 0.01 0.03 0.02 0.01 0.01 0.01 0.00 0.00 0.00 0.00 0.00 0.00 0.00 0.00 0.00 0.00 0.00 0.00 0.00 0.00 0.00
0.01 0.01 0.01 0.02 0.00 0.00 0.00 0.00 0.00 0.01 0.00 0.00 0.00 0.00 0.00 0.00 0.00 0.00 0.00 0.00 0.00 0.00 0.00 0.00 0.01 0.04 0.01 0.00 0.00 0.00 0.00 0.00 0.00 0.00 0.00 0.00 0.00 0.00 0.00 0.00 0.00 0.00 0.00 0.00 0.00
0.00 0.01 0.01 0.01 0.00 0.00 0.00 0.00 0.00 0.00 0.00 0.00 0.00 0.00 0.00 0.00 0.00 0.00 0.00 0.00 0.00 0.00 0.00 0.01 0.02 0.02 0.00 0.00 0.00 0.00 0.00 0.00 0.00 0.00 0.00 0.00 0.00 0.00 0.00 0.00 0.00 0.00 0.00 0.00 0.00
0.00 0.00 0.01 0.00 0.00 0.00 0.00 0.00 0.00 0.00 0.00 0.00 0.00 0.00 0.00 0.00 0.00 0.00 0.00 0.00 0.00 0.00 0.00 0.00 0.01 0.00 0.00 0.00 0.00 0.00 0.00 0.00 0.00 0.00 0.00 0.00 0.00 0.00 0.00 0.00 0.00 0.00 0.00 0.00 0.00
0.00 0.00 0.00 0.00 0.00 0.00 0.00 0.00 0.00 0.00 0.00 0.00 0.00 0.00 0.00 0.00 0.00 0.00 0.00 0.00 0.00 0.00 0.00 0.00 0.00 0.01 0.01 0.00 0.00 0.00 0.00 0.00 0.00 0.00 0.00 0.00 0.00 0.00 0.00 0.00 0.00 0.00 0.00 0.00 0.00
0.00 0.00 0.00 0.00 0.00 0.00 0.00 0.00 0.00 0.00 0.00 0.00 0.00 0.00 0.00 0.00 0.00 0.00 0.00 0.00 0.00 0.00 0.00 0.00 0.00 0.00 0.01 0.00 0.00 0.00 0.02 0.01 0.00 0.00 0.00 0.00 0.00 0.00 0.00 0.00 0.00 0.00 0.00 0.00 0.00
0.00 0.00 0.00 0.00 0.00 0.00 0.00 0.00 0.00 0.00 0.00 0.00 0.00 0.00 0.00 0.00 0.00 0.00 0.00 0.00 0.00 0.00 0.00 0.00 0.00 0.01 0.01 0.00 0.00 0.00 0.00 0.00 0.00 0.00 0.00 0.00 0.00 0.00 0.00 0.00 0.00 0.00 0.00 0.00 0.00
0.00 0.00 0.00 0.00 0.00 0.00 0.00 0.00 0.00 0.00 0.00 0.00 0.00 0.00 0.00 0.00 0.00 0.01 0.00 0.00 0.00 0.00 0.00 0.01 0.02 0.01 0.01 0.01 0.02 0.00 0.00 0.00 0.00 0.01 0.00 0.00 0.00 0.00 0.00 0.00 0.00 0.00 0.00 0.00 0.00
0.00 0.00 0.00 0.00 0.00 0.00 0.00 0.00 0.00 0.00 0.00 0.00 0.00 0.00 0.00 0.00 0.01 0.01 0.00 0.00 0.00 0.00 0.00 0.02 0.02 0.00 0.00 0.01 0.02 0.00 0.00 0.01 0.01 0.01 0.00 0.00 0.00 0.00 0.00 0.00 0.00 0.00 0.00 0.00 0.00
0.00 0.00 0.00 0.00 0.00 0.00 0.00 0.00 0.00 0.00 0.00 0.00 0.00 0.00 0.00 0.00 0.01 0.01 0.00 0.00 0.00 0.00 0.00 0.01 0.02 0.01 0.00 0.00 0.00 0.00 0.00 0.00 0.00 0.00 0.00 0.00 0.00 0.00 0.00 0.00 0.00 0.00 0.00 0.00 0.00
0.00 0.00 0.00 0.00 0.00 0.00 0.00 0.00 0.00 0.00 0.00 0.00 0.00 0.00 0.00 0.00 0.00 0.00 0.00 0.00 0.00 0.00 0.00 0.00 0.00 0.00 0.00 0.00 0.00 0.00 0.00 0.00 0.00 0.00 0.00 0.00 0.00 0.00 0.00 0.00 0.00 0.00 0.00 0.00 0.00
0.00 0.00 0.00 0.00 0.00 0.00 0.00 0.00 0.00 0.00 0.00 0.00 0.00 0.00 0.00 0.00 0.00 0.00 0.00 0.00 0.00 0.00 0.00 0.00 0.00 0.00 0.00 0.00 0.00 0.00 0.00 0.00 0.00 0.00 0.00 0.00 0.00 0.00 0.00 0.00 0.00 0.00 0.00 0.00 0.00
0.00 0.00 0.00 0.00 0.00 0.00 0.00 0.00 0.00 0.00 0.00 0.00 0.00 0.00 0.00 0.00 0.00 0.00 0.00 0.00 0.00 0.00 0.00 0.00 0.00 0.00 0.00 0.00 0.00 0.00 0.00 0.00 0.00 0.00 0.00 0.00 0.00 0.00 0.00 0.00 0.00 0.00 0.00 0.00 0.00
0.00 0.00 0.00 0.00 0.00 0.00 0.00 0.00 0.00 0.00 0.00 0.00 0.00 0.00 0.00 0.00 0.00 0.00 0.00 0.00 0.00 0.00 0.00 0.00 0.00 0.00 0.00 0.00 0.00 0.00 0.00 0.00 0.00 0.00 0.00 0.00 0.00 0.00 0.00 0.00 0.00 0.00 0.00 0.00 0.00
0.00 0.00 0.00 0.00 0.00 0.00 0.00 0.00 0.00 0.00 0.00 0.00 0.00 0.00 0.00 0.00 0.00 0.00 0.00 0.00 0.00 0.00 0.00 0.00 0.00 0.00 0.00 0.00 0.00 0.00 0.00 0.00 0.00 0.00 0.00 0.00 0.00 0.00 0.00 0.00 0.00 0.00 0.00 0.00 0.00
0.00 0.00 0.00 0.00 0.00 0.00 0.00 0.00 0.00 0.00 0.00 0.00 0.00 0.00 0.00 0.00 0.00 0.00 0.00 0.00 0.00 0.00 0.00 0.00 0.00 0.00 0.00 0.00 0.00 0.00 0.00 0.00 0.00 0.00 0.00 0.00 0.00 0.00 0.00 0.00 0.00 0.00 0.00 0.00 0.00
0.00 0.00 0.00 0.00 0.00 0.00 0.00 0.00 0.00 0.00 0.00 0.00 0.00 0.00 0.00 0.00 0.00 0.00 0.00 0.00 0.00 0.00 0.00 0.00 0.00 0.00 0.00 0.00 0.00 0.00 0.00 0.00 0.00 0.00 0.00 0.00 0.00 0.00 0.00 0.00 0.00 0.00 0.00 0.00 0.00
0.00 0.00 0.00 0.00 0.00 0.00 0.00 0.00 0.00 0.00 0.00 0.00 0.00 0.00 0.00 0.00 0.00 0.00 0.00 0.00 0.00 0.00 0.00 0.00 0.00 0.00 0.00 0.00 0.00 0.00 0.00 0.00 0.00 0.00 0.00 0.00 0.00 0.00 0.00 0.00 0.00 0.00 0.00 0.00 0.00
0.00 0.00 0.00 0.00 0.00 0.00 0.00 0.00 0.00 0.00 0.00 0.00 0.00 0.00 0.00 0.00 0.00 0.00 0.00 0.00 0.00 0.00 0.00 0.00 0.00 0.00 0.00 0.00 0.00 0.00 0.00 0.00 0.00 0.00 0.00 0.00 0.00 0.00 0.00 0.00 0.00 0.00 0.00 0.00 0.00
MSLP
1019.37 1019.04 1018.48 1018.35 1018.12 1017.88 1017.55 1017.33 1017.11 1016.94 1016.75 1016.57 1016.39 1016.37 1016.26 1016.13 1016.13 1016.20 1016.00 1015.75 1015.60 1015.03 1015.21 1015.41 1015.52 1015.42 1015.50 1015.62 1015.66 1015.97 1016.21 1015.41 1014.72 1014.40 1013.36 1012.96 1013.49 1013.26 1013.41 1013.32 1011.99 1011.07 1011.09 1011.23 1012.07
1019.11 1018.76 1018.56 1018.18 1017.85 1017.60 1017.40 1017.08 1016.75 1016.60 1016.47 1016.29 1016.22 1016.11 1016.11 1016.08 1016.03 1015.63 1015.56 1015.14 1015.13 1014.91 1015.22 1015.51 1015.65 1015.80 1015.75 1015.58 1015.75 1015.89 1015.75 1014.52 1013.69 1013.69 1013.46 1014.13 1014.14 1014.80 1014.32 1013.41 1012.77 1011.85 1011.48 1011.91 1012.39
1019.06 1018.54 1018.33 1018.05 1017.69 1017.28 1016.92 1016.65 1016.45 1016.20 1016.04 1016.11 1016.02 1016.03 1016.00 1016.14 1016.18 1014.84 1013.99 1014.41 1014.64 1014.73 1014.94 1015.34 1015.66 1016.01 1015.88 1015.70 1015.63 1015.40 1014.70 1014.18 1013.65 1013.62 1013.79 1014.92 1015.44 1015.42 1015.17 1014.28 1013.62 1012.49 1012.08 1012.57 1012.98
1019.07 1018.69 1018.17 1017.74 1017.35 1017.04 1016.79 1016.38 1016.06 1015.90 1015.80 1015.83 1015.86 1015.87 1015.86 1016.07 1015.82 1014.22 1014.26 1014.33 1014.46 1014.61 1014.65 1015.07 1015.54 1016.00 1015.82 1015.56 1015.33 1015.22 1014.47 1014.15 1013.83 1013.85 1015.10 1015.58 1015.36 1015.83 1015.55 1014.18 1013.04 1012.62 1011.51 1012.29 1012.91
1019.16 1018.42 1018.11 1017.61 1017.12 1016.67 1016.27 1015.85 1015.46 1015.27 1015.44 1015.50 1015.69 1015.81 1016.08 1016.14 1015.21 1014.18 1014.10 1014.33 1014.11 1013.38 1014.02 1014.71 1015.31 1015.51 1015.46 1015.27 1015.32 1015.09 1014.66 1014.32 1014.05 1014.01 1014.14 1015.08 1015.11 1015.30 1014.70 1013.39 1013.37 1012.63 1012.63 1012.39 1013.12
1018.90 1018.36 1017.97 1017.53 1017.04 1016.45 1015.82 1015.18 1014.91 1014.84 1015.16 1015.29 1015.37 1015.78 1016.09 1015.83 1014.13 1013.97 1013.85 1014.38 1014.78 1014.82 1014.19 1014.65 1014.88 1015.01 1015.09 1015.09 1015.32 1014.70 1014.71 1014.65 1014.26 1014.18 1014.10 1014.35 1014.36 1014.38 1013.82 1014.23 1013.84 1012.94 1012.64 1012.98 1013.11
1018.77 1018.37 1017.86 1017.39 1016.72 1016.23 1015.69 1015.36 1014.64 1014.41 1014.83 1015.10 1015.27 1015.67 1015.83 1014.86 1013.98 1014.10 1013.99 1014.55 1014.97 1015.52 1014.68 1014.64 1014.83 1014.94 1014.80 1015.06 1014.70 1014.97 1015.11 1014.89 1014.71 1014.53 1014.22 1014.33 1014.41 1013.84 1013.62 1014.18 1013.89 1013.44 1013.43 1013.16 1013.34
1018.77 1018.23 1017.70 1017.35 1016.55 1016.12 1015.64 1015.17 1014.78 1014.39 1014.64 1015.00 1015.15 1015.64 1015.32 1014.07 1014.04 1014.27 1014.39 1014.98 1015.04 1015.81 1015.64 1014.87 1015.09 1015.12 1015.15 1014.55 1014.69 1015.44 1015.83 1015.44 1014.47 1014.52 1014.16 1013.99 1013.27 1013.61 1013.32 1013.39 1013.33 1013.37 1013.27 1013.31 1013.06
1018.52 1018.08 1017.67 1016.95 1016.54 1016.05 1015.71 1015.19 1014.67 1014.58 1014.69 1014.85 1015.26 1015.50 1014.83 1013.80 1014.00 1013.83 1014.31 1014.73 1015.28 1016.17 1016.17 1014.77 1014.99 1014.61 1014.85 1014.77 1015.06 1015.28 1015.43 1015.28 1014.67 1013.96 1013.85 1013.82 1013.44 1013.26 1012.84 1013.65 1013.35 1013.57 1013.42 1013.38 1013.14
1018.42 1017.95 1017.46 1016.95 1016.43 1015.88 1015.58 1015.55 1015.36 1015.12 1015.07 1015.21 1015.33 1015.85 1014.66 1014.08 1013.72 1014.12 1014.30 1014.71 1015.21 1015.50 1015.40 1015.12 1014.75 1014.24 1014.41 1014.61 1013.75 1014.62 1015.39 1015.43 1015.05 1014.47 1014.38 1014.20 1013.72 1013.13 1012.88 1013.02 1013.19 1013.14 1013.26 1013.29 1013.39
1018.27 1017.76 1017.30 1016.80 1016.25 1015.92 1015.85 1015.70 1016.16 1016.05 1015.85 1015.88 1015.76 1015.39 1014.64 1014.33 1013.85 1014.36 1014.67 1014.98 1015.45 1015.70 1016.11 1015.41 1014.66 1013.95 1013.71 1014.36 1014.31 1014.95 1015.44 1015.43 1015.42 1014.81 1014.76 1014.66 1014.26 1013.49 1012.88 1012.93 1012.93 1012.84 1013.10 1013.20 1013.15
1018.14 1017.52 1017.16 1016.61 1016.21 1016.01 1016.06 1016.38 1016.53 1016.92 1016.44 1015.75 1015.51 1015.27 1014.80 1014.61 1014.56 1014.63 1014.72 1015.37 1015.81 1016.59 1016.98 1016.28 1014.96 1014.22 1014.43 1014.41 1014.48 1014.61 1015.32 1015.71 1015.53 1014.97 1015.44 1015.03 1014.29 1014.02 1013.42 1012.99 1012.72 1012.75 1012.88 1012.86 1012.94
1017.84 1017.13 1016.82 1016.55 1016.25 1016.45 1016.90 1016.74 1016.50 1016.79 1016.74 1016.12 1015.62 1015.24 1014.97 1014.87 1014.96 1014.96 1015.10 1015.46 1016.11 1016.62 1016.78 1016.54 1014.85 1014.42 1014.18 1014.51 1014.64 1014.91 1015.10 1015.59 1015.39 1015.22 1015.59 1015.55 1015.18 1014.46 1013.43 1012.98 1012.77 1012.56 1012.52 1012.61 1012.79
1017.62 1016.88 1016.48 1016.44 1016.53 1016.58 1016.94 1016.91 1016.80 1016.50 1016.53 1016.90 1015.82 1015.74 1015.43 1015.14 1015.38 1015.43 1015.39 1015.99 1016.74 1017.01 1017.13 1016.84 1015.20 1014.88 1014.63 1014.64 1014.64 1015.07 1015.28 1015.52 1015.60 1015.86 1016.23 1015.92 1015.33 1014.08 1013.26 1012.97 1012.86 1012.51 1012.54 1012.76 1012.98
1017.23 1016.48 1016.36 1016.30 1016.51 1016.48 1016.94 1016.82 1017.00 1017.02 1017.21 1017.09 1016.55 1015.94 1015.61 1015.96 1016.35 1016.08 1015.96 1016.00 1016.52 1016.83 1017.05 1016.00 1015.39 1015.23 1014.98 1014.22 1014.51 1015.22 1015.02 1015.74 1016.13 1016.51 1016.56 1016.43 1016.53 1014.14 1013.27 1012.89 1011.77 1011.56 1012.09 1012.61 1013.05
1016.93 1016.29 1016.40 1016.71 1016.73 1016.68 1016.68 1016.95 1017.23 1017.84 1017.16 1016.83 1016.68 1016.49 1016.27 1016.24 1016.49 1016.31 1016.32 1016.58 1016.62 1016.56 1016.49 1015.78 1015.02 1014.99 1014.78 1014.66 1014.57 1015.28 1015.87 1016.36 1016.93 1017.38 1017.54 1016.69 1016.79 1014.02 1013.03 1011.71 1011.61 1011.66 1011.85 1012.50 1013.30
1016.51 1016.00 1016.21 1016.46 1016.79 1016.58 1016.80 1017.50 1017.68 1017.40 1017.34 1016.72 1016.54 1016.60 1016.34 1016.32 1016.51 1016.36 1016.52 1016.94 1016.73 1016.70 1016.15 1015.82 1014.81 1014.76 1014.59 1014.91 1015.44 1015.63 1016.50 1017.39 1017.73 1017.71 1016.91 1016.29 1016.55 1013.14 1012.16 1011.55 1011.39 1011.35 1011.78 1012.56 1013.13
1016.12 1015.66 1015.94 1016.12 1016.41 1016.38 1016.87 1017.49 1017.57 1017.94 1016.80 1016.04 1015.99 1015.63 1015.56 1015.47 1015.67 1015.81 1016.15 1016.21 1015.86 1015.70 1015.29 1015.00 1015.20 1014.68 1014.22 1014.63 1014.99 1015.63 1016.21 1017.09 1017.35 1017.64 1017.06 1016.46 1015.13 1012.63 1011.85 1011.23 1011.00 1011.18 1011.76 1012.60 1013.37
1015.83 1015.96 1016.09 1016.11 1016.38 1016.81 1017.09 1017.33 1017.81 1017.23 1016.33 1016.00 1015.38 1014.79 1014.68 1014.69 1014.98 1014.97 1015.17 1014.83 1014.35 1014.50 1014.38 1014.35 1015.07 1014.96 1015.02 1014.99 1015.02 1015.97 1016.68 1017.25 1017.55 1017.50 1017.33 1015.98 1014.18 1012.52 1011.95 1011.82 1011.57 1011.85 1012.57 1013.06 1013.47
1016.42 1016.52 1016.07 1015.61 1016.29 1016.72 1016.76 1017.42 1017.06 1016.14 1015.54 1015.51 1014.88 1013.84 1013.50 1013.38 1013.56 1013.92 1013.24 1012.60 1012.46 1013.01 1012.98 1013.41 1014.56 1014.95 1015.24 1015.09 1015.48 1015.61 1016.62 1017.55 1017.72 1017.92 1017.66 1015.84 1014.64 1012.86 1012.34 1012.31 1012.06 1012.27 1012.93 1013.40 1013.82
1016.31 1016.54 1015.64 1015.54 1016.02 1016.62 1017.21 1016.95 1016.02 1014.76 1014.82 1014.63 1014.03 1013.17 1012.37 1012.13 1012.38 1012.36 1012.25 1011.77 1011.64 1011.09 1011.37 1012.50 1013.31 1015.10 1015.20 1014.87 1015.02 1016.08 1016.15 1016.69 1016.96 1017.45 1017.08 1016.35 1013.81 1012.01 1011.59 1011.70 1012.03 1012.52 1012.87 1013.48 1014.14
1016.92 1016.88 1015.79 1015.92 1016.24 1017.12 1016.62 1015.83 1015.05 1014.23 1013.87 1013.63 1013.34 1012.79 1011.75 1011.25 1011.43 1011.62 1011.69 1011.31 1010.93 1010.65 1011.11 1011.60 1013.03 1014.32 1014.68 1014.57 1014.69 1015.16 1015.41 1015.93 1016.67 1017.30 1017.10 1016.34 1013.76 1011.94 1011.57 1011.73 1012.06 1012.52 1013.03 1013.56 1014.07
1017.38 1017.01 1015.99 1016.23 1016.66 1016.83 1015.97 1015.11 1014.33 1013.66 1013.27 1012.87 1012.38 1011.93 1011.35 1011.07 1011.19 1011.04 1011.05 1010.61 1010.42 1010.55 1010.94 1011.42 1012.80 1014.10 1015.11 1015.29 1015.11 1014.93 1015.02 1015.31 1015.98 1016.47 1016.32 1015.78 1013.35 1011.96 1011.50 1011.72 1011.99 1012.44 1013.14 1013.71 1014.34
1018.39 1018.24 1017.34 1016.85 1016.86 1016.48 1015.87 1014.91 1013.97 1013.02 1013.04 1012.56 1012.00 1011.31 1011.46 1011.21 1010.90 1011.04 1010.80 1010.47 1010.34 1010.43 1010.73 1011.20 1012.34 1013.05 1013.52 1013.23 1013.59 1014.53 1014.50 1015.04 1015.47 1016.22 1015.36 1014.25 1012.94 1011.93 1011.75 1011.67 1012.12 1012.45 1012.94 1013.59 1014.24
1018.94 1019.46 1019.10 1017.99 1017.13 1016.60 1015.73 1014.83 1014.00 1013.44 1012.74 1012.46 1011.90 1011.92 1012.08 1011.83 1011.44 1011.25 1010.94 1010.63 1010.34 1010.36 1010.58 1011.17 1012.28 1012.90 1013.01 1012.96 1013.12 1013.38 1013.74 1014.30 1014.88 1014.53 1014.30 1013.31 1012.45 1011.31 1011.10 1011.30 1011.68 1012.11 1012.80 1013.51 1014.11
1020.42 1020.34 1019.55 1018.76 1017.72 1016.89 1015.67 1014.93 1014.05 1013.50 1013.24 1012.65 1012.39 1012.00 1011.75 1011.98 1011.92 1011.54 1011.37 1010.94 1010.67 1010.59 1010.90 1011.58 1012.69 1013.09 1013.37 1013.11 1013.03 1013.22 1013.31 1013.50 1013.68 1013.53 1013.23 1012.79 1011.90 1010.48 1010.81 1011.13 1011.58 1012.08 1012.77 1013.34 1013.77
1020.79 1020.56 1020.11 1018.45 1017.45 1017.05 1015.89 1014.39 1013.76 1013.49 1012.79 1012.55 1012.31 1012.09 1011.74 1011.47 1011.79 1011.63 1011.37 1011.17 1010.82 1010.95 1011.43 1012.09 1012.94 1013.73 1013.98 1013.64 1013.50 1013.13 1012.08 1012.38 1012.52 1012.34 1012.13 1012.08 1011.02 1010.37 1010.52 1010.87 1011.03 1011.67 1012.26 1012.77 1013.34
Thickness
5525 5521 5518 5509 5504 5501 5500 5496 5494 5491 5490 5489 5489 5490 5492 5497 5502 5510 5518 5525 5529 5540 5545 5552 5558 5564 5570 5574 5581 5583 5573 5591 5607 5616 5640 5657 5652 5661 5662 5665 5689 5706 5711 5720 5721
5523 5517 5509 5503 5498 5495 5491 5488 5487 5483 5479 5477 5475 5476 5478 5482 5490 5500 5507 5512 5520 5528 5536 5539 5545 5551 5558 5566 5571 5571 5565 5593 5627 5633 5636 5624 5638 5630 5641 5654 5670 5688 5705 5712 5712
5519 5513 5505 5497 5494 5490 5486 5480 5474 5469 5464 5458 5456 5457 5462 5467 5471 5490 5500 5506 5510 5516 5528 5531 5535 5542 5550 5558 5566 5573 5584 5608 5616 5624 5616 5603 5618 5628 5629 5634 5658 5676 5692 5697 5699
5513 5505 5500 5495 5490 5483 5475 5467 5458 5449 5442 5436 5433 5436 5444 5451 5452 5482 5486 5494 5499 5510 5518 5524 5527 5531 5541 5553 5563 5568 5587 5595 5603 5602 5595 5602 5616 5614 5621 5639 5663 5673 5693 5693 5692
5508 5504 5495 5490 5485 5477 5464 5450 5439 5431 5426 5425 5424 5422 5426 5431 5445 5463 5472 5482 5491 5507 5513 5519 5521 5529 5536 5551 5558 5563 5576 5586 5592 5596 5605 5605 5608 5614 5626 5643 5652 5667 5672 5684 5685
5507 5500 5492 5486 5478 5469 5456 5442 5429 5423 5422 5421 5421 5417 5416 5416 5441 5454 5467 5471 5474 5484 5502 5508 5520 5531 5536 5544 5548 5566 5570 5575 5584 5589 5600 5602 5609 5612 5630 5630 5638 5654 5662 5670 5678
5504 5496 5490 5483 5476 5465 5451 5435 5424 5422 5420 5418 5416 5413 5410 5418 5434 5442 5450 5456 5464 5469 5489 5499 5511 5519 5534 5539 5553 5555 5557 5564 5572 5579 5589 5596 5591 5610 5621 5622 5632 5644 5649 5662 5670
5502 5496 5489 5480 5474 5463 5448 5433 5420 5420 5419 5416 5415 5409 5407 5425 5426 5428 5439 5445 5454 5457 5470 5492 5503 5515 5522 5540 5544 5540 5544 5546 5570 5575 5587 5590 5599 5608 5618 5620 5627 5637 5644 5651 5668
5504 5496 5488 5483 5474 5462 5447 5433 5424 5418 5417 5415 5412 5408 5408 5425 5424 5428 5429 5438 5446 5448 5459 5489 5497 5516 5520 5526 5529 5536 5535 5546 5565 5583 5588 5588 5593 5607 5618 5611 5623 5629 5638 5645 5657
5505 5496 5490 5484 5475 5463 5449 5435 5426 5415 5413 5410 5411 5405 5417 5423 5428 5426 5427 5432 5439 5450 5460 5479 5493 5511 5519 5522 5536 5540 5544 5543 5552 5571 5578 5581 5588 5604 5613 5614 5618 5626 5630 5638 5645
5506 5499 5493 5487 5481 5469 5453 5439 5424 5414 5409 5408 5409 5409 5419 5421 5427 5425 5425 5426 5433 5443 5442 5471 5487 5504 5524 5529 5538 5535 5540 5549 5550 5563 5569 5572 5581 5595 5607 5610 5614 5624 5627 5633 5643
5507 5503 5496 5490 5486 5474 5463 5445 5432 5419 5409 5412 5412 5413 5417 5420 5419 5423 5427 5426 5428 5426 5427 5459 5482 5509 5521 5528 5535 5540 5535 5537 5549 5560 5559 5566 5578 5582 5593 5604 5611 5619 5624 5631 5638
5510 5507 5501 5493 5488 5475 5461 5453 5443 5428 5412 5414 5414 5415 5414 5418 5416 5420 5426 5426 5423 5422 5429 5451 5492 5507 5517 5522 5528 5530 5533 5533 5549 5556 5555 5559 5563 5572 5590 5600 5607 5617 5625 5630 5633
5514 5510 5506 5497 5490 5480 5467 5460 5452 5442 5414 5415 5419 5409 5408 5414 5413 5418 5424 5424 5419 5424 5433 5442 5481 5497 5502 5520 5529 5525 5533 5538 5544 5542 5536 5556 5549 5570 5592 5595 5600 5610 5617 5621 5627
5518 5515 5509 5500 5493 5485 5475 5466 5458 5446 5425 5430 5423 5419 5412 5408 5404 5412 5417 5426 5425 5428 5438 5460 5477 5489 5497 5525 5529 5527 5536 5537 5537 5537 5543 5547 5542 5565 5578 5585 5607 5621 5621 5619 5621
5522 5519 5510 5502 5495 5489 5483 5471 5462 5430 5450 5446 5432 5423 5422 5414 5408 5417 5418 5424 5430 5440 5446 5465 5489 5499 5508 5515 5525 5525 5527 5530 5530 5529 5528 5537 5538 5558 5575 5600 5601 5612 5615 5611 5611
5526 5522 5513 5504 5495 5494 5486 5472 5452 5448 5468 5456 5454 5434 5429 5430 5423 5428 5429 5422 5435 5431 5453 5462 5489 5497 5510 5508 5514 5518 5516 5515 5523 5528 5523 5535 5535 5578 5583 5592 5598 5605 5605 5604 5606
5529 5525 5517 5507 5501 5497 5488 5463 5468 5466 5475 5479 5461 5459 5460 5455 5445 5447 5443 5446 5447 5452 5476 5484 5485 5494 5504 5516 5521 5519 5515 5492 5511 5517 5527 5535 5540 5572 5584 5585 5596 5598 5601 5600 5599
5531 5524 5517 5510 5502 5494 5486 5470 5486 5480 5482 5471 5474 5481 5480 5471 5463 5459 5452 5463 5475 5468 5487 5481 5488 5491 5502 5509 5520 5514 5516 5513 5504 5524 5491 5529 5552 5572 5577 5576 5580 5585 5589 5590 5593
5528 5519 5517 5516 5504 5494 5485 5478 5475 5487 5488 5477 5484 5498 5502 5496 5490 5476 5485 5501 5502 5487 5497 5493 5494 5496 5497 5509 5507 5517 5513 5513 5513 5525 5517 5530 5542 5560 5568 5563 5570 5576 5575 5580 5585
5529 5521 5521 5515 5507 5495 5479 5471 5485 5499 5492 5486 5494 5503 5515 5516 5502 5504 5502 5509 5512 5518 5518 5507 5507 5496 5500 5506 5513 5509 5515 5515 5516 5501 5503 5502 5543 5566 5569 5566 5566 5565 5570 5571 5573
5518 5508 5520 5513 5499 5484 5484 5506 5508 5509 5500 5501 5495 5497 5517 5521 5514 5509 5502 5510 5517 5523 5524 5525 5513 5504 5512 5515 5520 5516 5522 5518 5486 5513 5483 5487 5535 5563 5561 5561 5562 5561 5565 5564 5567
5512 5511 5517 5509 5488 5501 5507 5507 5512 5513 5512 5514 5515 5519 5520 5521 5517 5517 5516 5522 5523 5523 5525 5525 5505 5500 5499 5500 5508 5510 5523 5528 5516 5492 5487 5497 5537 5558 5556 5556 5561 5560 5559 5557 5556
5498 5491 5499 5501 5496 5505 5505 5505 5513 5517 5509 5512 5515 5520 5517 5518 5518 5518 5520 5523 5524 5525 5526 5527 5510 5501 5504 5525 5509 5498 5515 5518 5504 5473 5509 5507 5546 5554 5553 5555 5552 5553 5554 5550 5551
5488 5486 5482 5474 5488 5495 5504 5508 5509 5508 5512 5510 5516 5509 5504 5512 5515 5516 5519 5523 5528 5530 5530 5526 5508 5515 5527 5526 5522 5517 5518 5509 5500 5519 5512 5539 5540 5553 5555 5551 5550 5548 5548 5546 5547
5476 5465 5471 5471 5481 5485 5498 5501 5501 5503 5501 5502 5502 5503 5507 5505 5506 5509 5510 5518 5522 5527 5527 5516 5502 5508 5488 5526 5525 5522 5520 5514 5516 5527 5529 5528 5536 5557 5553 5551 5545 5544 5542 5543 5544
5469 5465 5462 5469 5475 5478 5484 5494 5495 5496 5498 5501 5500 5497 5500 5508 5501 5502 5504 5507 5520 5520 5517 5515 5498 5485 5480 5513 5512 5498 5517 5516 5519 5524 5532 5524 5541 5551 5550 5550 5550 5546 5545 5546 5542